Home   Weather   Thousand Oaks   Past weeks

Flag for USA Past Weather in Thousand Oaks, California, USA — Yesterday and Last 2 Weeks

Now
82 °F

Sunny.


Feels Like: 80 °F
Forecast: 55 / 87 °F
Wind: 10 mph from Southwest

Location: Camarillo Airport

Current Time: Sep 24, 2016 at 1:57:05 PM

Latest Report: Sep 24, 2016 at 12:55 PM


Visibility: 10 mi

Pressure: 30.02 "Hg

Humidity: 28%

Dew Point: 46 °F

Location of Thousand OaksLocation

Past Weather in Thousand Oaks — Graph

°F

Thousand Oaks Temperature Yesterday

Maximum temperature yesterday: 81 °F (at 1:55 PM)
Minimum temperature yesterday: 53 °F (at 5:55 AM)
Average temperature yesterday: 68 °F

High & Low Weather Summary for the Past Weeks

 TemperatureHumidityPressure
High85 °F (Sep 20, 12:55 PM)100% (Sep 18, 5:55 AM)30.12 "Hg (Sep 18, 5:55 AM)
Low52 °F (Sep 14, 5:55 AM)24% (Sep 23, 11:55 AM)29.83 "Hg (Sep 22, 4:55 PM)
Average67 °F71%29.97 "Hg
* Reported Sep 9 11:55 AM — Sep 24 11:55 AM, Thousand Oaks, Weather by CustomWeather, © 2016

Note: Actual official high and low records may vary slightly from our data, if they occured in-between our weather recording intervals... More about our weather records

Advertising

Thousand Oaks Weather History for the Previous 24 Hours

Scroll right to see more
 ConditionsComfort  
Time TempWeatherWind HumidityBarometerVisibility
11:55 AM
Sat, Sep 24
80 °FSunny.10 mph32%30.03 "Hg10 mi
10:55 AM81 °FSunny.10 mph30%30.03 "Hg10 mi
9:55 AM76 °FSunny.5 mph29%30.03 "Hg10 mi
8:55 AM70 °FSunny.No wind35%30.02 "Hg10 mi
7:55 AM64 °FSunny.6 mph37%30.02 "Hg10 mi
6:55 AM58 °FSunny.No wind44%30.01 "Hg10 mi
5:55 AM57 °FClear.3 mph44%30.00 "Hg10 mi
4:55 AM58 °FClear.5 mph46%29.98 "Hg10 mi
3:55 AM60 °FClear.7 mph42%29.98 "Hg10 mi
2:55 AM62 °FClear.3 mph39%29.98 "Hg10 mi
1:55 AM59 °FClear.6 mph51%29.99 "Hg10 mi
12:55 AM61 °FClear.5 mph50%29.98 "Hg10 mi
11:55 PM
Fri, Sep 23
62 °FClear.3 mph62%29.99 "Hg10 mi
10:55 PM63 °FClear.3 mph70%29.99 "Hg10 mi
9:55 PM65 °FClear.No wind68%29.98 "Hg10 mi
8:55 PM68 °FClear.No wind65%29.97 "Hg10 mi
7:55 PM69 °FClear.5 mph66%29.96 "Hg10 mi
6:55 PM71 °FClear.5 mph61%29.95 "Hg8 mi
5:55 PM75 °FSunny.5 mph48%29.95 "Hg10 mi
4:55 PM77 °FSunny.6 mph44%29.96 "Hg10 mi
3:55 PM80 °FSunny.15 mph32%29.95 "Hg10 mi
2:55 PM80 °FSunny.14 mph31%29.96 "Hg10 mi
1:55 PM81 °FSunny.22 mph28%29.97 "Hg10 mi
Weather by CustomWeather, © 2016

See weather overviewHow to use our weather pages